Погода в Марлот Парке

ЮАР     25°21′20″S   31°45′47″E
темп.,
°C
ветер,
м/с
пор.,
м/с
влажн.,
%
обл.,
%
осадки,
мм/ч
давл.,
гПа
погр.,
м
13 июня, вс
вс1323:00+16зсз11860 0.0 102211
02:00+15з11805 0.0 102212
05:00+14зсз22713 0.0 102112
08:00+16зюз12600 0.0 1023112
11:00+25с00360 0.0 1022601
14:00+27вюв22260 0.0 10191135
17:00+22в22365 0.0 102014
20:00+18с11455 0.0 102111
14 июня, пн
пн1423:00+17зсз22496 0.0 102215
02:00+16зсз225017 0.0 102119
05:00+15зсз2246100 0.0 102017
08:00+17зсз123888 0.0 102286
11:00+27юв01210 0.0 1021530
14:00+29в22170 0.0 10171252
17:00+23всв22265 0.0 101830
20:00+19ссв123775 0.0 102114
15 июня, вт
вт1523:00+17з22425 0.0 102212
02:00+16зюз114372 0.0 102111
05:00+14зюз114628 0.0 102210
08:00+17зсз11405 0.0 102387
11:00+25ссз12295 0.0 1022689
14:00+27ссв34224 0.0 10181490
17:00+22св34324 0.0 101866
20:00+18св24451 0.0 102086
16 июня, ср
ср1623:00+16зсз22530 0.0 102128
02:00+15сз22535 0.0 102013
05:00+14сз22530 0.0 102018
08:00+16сз24460 0.0 1021155
11:00+23с34310 0.0 1020938
14:00+26ссв45230 0.0 10161654
17:00+22св38310 0.0 1016181
20:00+18ссв24461 0.0 101882
17 июня, чт
чт1723:00+16сз23510 0.0 101848
02:00+15сз37490 0.0 1018118
05:00+14сз23470 0.0 101849
08:00+17зсз23340 0.0 1019111
11:00+27ссз22180 0.0 1018644
14:00+30св21160 0.0 10151078
17:00+24в22260 0.0 101715
20:00+20юв512460 0.0 1021405